CZ-3B DEB, 42472

Orbit data source: Space-Track

CZ-3B DEB, 42472 is space debris in HEO originally from a launch on Mon, 19 Dec 2011 UTC launched from the Xichang Space Center, China (XSC). Debris objects in space refer to the collection of defunct objects orbiting the Earth. Examples of debris include non-operational satellites, rocket bodies, and fragments generated from explosions, collisions, or faulty payload assembly.

Loading next visibility...
Identifier
42472, 2011-077AM
Orbit
HEO
Last TLE update
3 days ago
Origin
Manufacturer
CALT
Mission
Spacecraft
Bus & Motor
Unknown
Mass
Unknown
Launch date (UTC)
2011-12-19 (13 years ago)
Launch vehicle
Unknown
Launch site
Xichang Space Center, China (XSC)
Object type
Payload
Rocket body
Debris
Shape & HBR
Unknown
Radar Cross Section
Medium (>0.1 m² and <1 m²)

Expand to show TLE details & history

TLE from 3 days ago
0 CZ-3B DEB
1 42472U 11077AM  25125.92831526 -.00000070  00000-0  00000-0 0  9994
2 42472  25.8103  32.4050 7174195 114.2835 332.6720  1.79299350 67722
Epoch: 2025-05-05T22:16Z
Definitive object data (Epoch: 2025-05-05T22:16:46.438Z)
Latitude
0.00001°
Longitude
-165.87347°
Altitude
13,388.467 km
Speed
5.138 km/s
True Right ascension
02h 09m 25s
True Declination
0° 00' 00"
Sunlit
Object was in daylight at TLE epoch
Visualization TLE readout
Latitude
-9.3187°
Longitude
173.65291°
Altitude
23,045.894 km
Speed
3.629 km/s
Apparent Right ascension
00h 56m 38s
Apparent Declination
-14° 38' 57"
Sunlit
Object is in daylight
Visualization observer readout
Local Sidereal Time
13:51:07
Azimuth
29.104° NE
Elevation
-62.062°
Doppler factor
1
Orbital elements
Apogee altitude
42,781.513 km
Perigee altitude
1,710.486 km
Semi-major axis
28,624.136 km
Eccentricity
0.7174195
Inclination
25.8103°
RAAN
32.405°
Arg. of periapsis
114.2835°
True anomaly
245.57694°
Mean anomaly
332.672°
Eccentric anomaly
295.60301°
Mean motion
0.44817 °/min
BSTAR
Unknown
Orbital period
803.26 mins
Loading maneuver chart data...
Loading SW <> Apogee altitude chart data...
Loading historical data...
Loading historical data...
Loading historical data...
Loading historical data...
Loading historical data...
Loading historical data...
Loading historical data...

CZ-3B DEB Visibility forecast

Observer location: undefined°, undefined°

Span
Click to sort rows by Start time (UTC) header in descending order
Start Az.
Max El. time (UTC)
Max El. Az.
Max El.
End time (UTC)
End Az.
765 mins2025-05-09 08:05:24.893Z202.463° SSW2025-05-09 20:37:24.893Z173.238° S34.825°2025-05-09 20:50:24.893Z104.436° ESE
|